Copper Mountain, CO

6:40 PM MDT on October 20, 2017 (GMT -0600)
Copper Mountain

Weather History for KCCU - August, 2013

Change the Weather History Date:

Thursday, August 8, 2013

  Actual Average Record
Temperature  
Mean Temperature 52 °F -  
Max Temperature 59 °F - 73 °F (2012)
Min Temperature 44 °F - 37 °F (2002)
Degree Days  
Heating Degree Days 14    
Month to date heating degree days  
Cooling Degree Days 0    
Month to date cooling degree days  
Growing Degree Days 2 (Base 50)    
Moisture  
Dew Point 34 °F    
Average Humidity 59    
Maximum Humidity 71    
Minimum Humidity 36    
Precipitation  
Precipitation 0.00 in - 0.53 in (2012)
Sea Level Pressure  
Sea Level Pressure 30.55 in    
Wind  
Wind Speed 11 mph (WSW)    
Max Wind Speed 25 mph    
Max Gust Speed 32 mph    
Visibility 10 miles    
Events Thunderstorm    
T = Trace of Precipitation, MM = Missing Value Source: NWS Daily Summary

Daily Weather History Graph

Daily Weather History Graph

Search for Another Location

Airport or City:

Trip Planner

Search our weather history database for the weather conditions in past years. The results will help you decide how hot, cold, wet, or windy it might be!

Date:

Astronomy

Aug. 08, 2013 Rise Set
Actual Time 6:10 AM MDT 8:08 PM MDT
Civil Twilight 5:41 AM MDT 8:38 PM MDT
Nautical Twilight 5:05 AM MDT 9:13 PM MDT
Astronomical Twilight 4:27 AM MDT 9:52 PM MDT
Moon 7:59 AM MDT (8/8) 8:49 PM MDT (8/8)
Length of Visible Light 14h 56m
Length of Day
13h 57m
Waxing Crescent, 3% of the Moon is Illuminated
Aug 8
Waxing Crescent
Aug 14
First Quarter
Aug 20
Full
Aug 28
Last Quarter
Sep 5
New

Hourly Weather History & Observations

Time (MDT) Temp. Windchill Dew Point Humidity Pressure Visibility Wind Dir Wind Speed Gust Speed Precip Events Conditions
12:15 AM 48.2 °F - 32.0 °F 54% 30.52 in 10.0 mi West 10.4 mph - N/A   Clear
12:35 AM 50.0 °F - 32.0 °F 50% 30.52 in 10.0 mi West 15.0 mph - N/A   Scattered Clouds
12:55 AM 48.2 °F - 32.0 °F 54% 30.52 in 10.0 mi West 15.0 mph - N/A   Overcast
1:15 AM 46.4 °F 39.8 °F 32.0 °F 57% 30.52 in 10.0 mi West 16.1 mph - N/A   Overcast
1:35 AM 46.4 °F 39.5 °F 33.8 °F 62% 30.52 in 10.0 mi West 17.3 mph - N/A   Scattered Clouds
1:55 AM 46.4 °F 39.8 °F 33.8 °F 62% 30.51 in 10.0 mi West 16.1 mph - N/A   Scattered Clouds
2:15 AM 46.4 °F 39.8 °F 33.8 °F 62% 30.51 in 10.0 mi West 16.1 mph - N/A   Mostly Cloudy
2:35 AM 46.4 °F 39.8 °F 33.8 °F 62% 30.51 in 10.0 mi West 16.1 mph - N/A   Scattered Clouds
2:55 AM 46.4 °F 40.7 °F 33.8 °F 62% 30.51 in 10.0 mi West 12.7 mph - N/A   Clear
3:15 AM 44.6 °F 38.8 °F 33.8 °F 66% 30.51 in 10.0 mi West 11.5 mph - N/A   Scattered Clouds
3:35 AM 44.6 °F 37.4 °F 33.8 °F 66% 30.50 in 10.0 mi West 16.1 mph - N/A   Scattered Clouds
3:55 AM 44.6 °F 37.4 °F 32.0 °F 61% 30.50 in 10.0 mi West 16.1 mph - N/A   Clear
4:15 AM 44.6 °F 38.8 °F 33.8 °F 66% 30.50 in 10.0 mi West 11.5 mph - N/A   Clear
4:35 AM 44.6 °F 39.2 °F 33.8 °F 66% 30.51 in 10.0 mi West 10.4 mph - N/A   Clear
4:55 AM 44.6 °F 39.2 °F 33.8 °F 66% 30.51 in 10.0 mi West 10.4 mph - N/A   Mostly Cloudy
5:15 AM 44.6 °F 39.7 °F 33.8 °F 66% 30.51 in 10.0 mi West 9.2 mph - N/A   Overcast
5:35 AM 44.6 °F - 33.8 °F 66% 30.51 in 10.0 mi Calm Calm - N/A   Overcast
5:55 AM 44.6 °F 42.2 °F 32.0 °F 61% 30.52 in 10.0 mi SSW 4.6 mph - N/A   Overcast
6:15 AM 44.6 °F 40.2 °F 32.0 °F 61% 30.52 in 10.0 mi South 8.1 mph - N/A   Overcast
6:35 AM 44.6 °F 40.7 °F 32.0 °F 61% 30.52 in 10.0 mi South 6.9 mph - N/A   Overcast
6:55 AM 46.4 °F 44.3 °F 32.0 °F 57% 30.52 in 10.0 mi WNW 4.6 mph - N/A   Overcast
7:15 AM 46.4 °F 44.3 °F 32.0 °F 57% 30.53 in 10.0 mi WNW 4.6 mph - N/A   Overcast
7:35 AM 46.4 °F 44.3 °F 32.0 °F 57% 30.54 in 10.0 mi West 4.6 mph - N/A   Overcast
7:55 AM 46.4 °F 40.1 °F 32.0 °F 57% 30.53 in 10.0 mi West 15.0 mph - N/A   Overcast
8:15 AM 46.4 °F 42.4 °F 32.0 °F 57% 30.53 in 10.0 mi West 8.1 mph - N/A   Overcast
8:35 AM 46.4 °F 41.5 °F 32.0 °F 57% 30.54 in 10.0 mi West 10.4 mph - N/A   Overcast
8:55 AM 46.4 °F 41.9 °F 32.0 °F 57% 30.54 in 10.0 mi West 9.2 mph - N/A   Overcast
9:15 AM 48.2 °F - 32.0 °F 54% 30.54 in 10.0 mi West 9.2 mph - N/A   Overcast
9:35 AM 51.8 °F - 33.8 °F 50% 30.55 in 10.0 mi West 10.4 mph - N/A   Overcast
9:55 AM 51.8 °F - 33.8 °F 50% 30.55 in 10.0 mi WNW 6.9 mph - N/A   Overcast
10:15 AM 53.6 °F - 33.8 °F 47% 30.55 in 10.0 mi West 6.9 mph - N/A   Scattered Clouds
10:35 AM 55.4 °F - 35.6 °F 47% 30.56 in 10.0 mi NNW 5.8 mph - N/A   Mostly Cloudy
10:55 AM 59.0 °F - 35.6 °F 42% 30.56 in 10.0 mi North 6.9 mph - N/A   Scattered Clouds
11:02 AM 59.0 °F - 33.8 °F 39% 30.56 in 10.0 mi West 4.6 mph - N/A   Scattered Clouds
11:55 AM 59.0 °F - 32.0 °F 36% 30.52 in 10.0 mi ESE 25.3 mph 32.2 mph N/A   Mostly Cloudy
12:09 PM 53.6 °F - 32.0 °F 44% 30.54 in 10.0 mi SE 18.4 mph 27.6 mph N/A   Overcast
1:55 PM 53.6 °F - 35.6 °F 51% 30.56 in 10.0 mi WNW 18.4 mph 23.0 mph N/A   Overcast
2:15 PM 46.4 °F 40.4 °F 35.6 °F 66% 30.57 in 10.0 mi WNW 13.8 mph 28.8 mph N/A Thunderstorm Mostly Cloudy
2:35 PM 44.6 °F 37.4 °F 33.8 °F 66% 30.57 in 10.0 mi WNW 16.1 mph - N/A Thunderstorm Mostly Cloudy
2:55 PM 44.6 °F 38.4 °F 35.6 °F 71% 30.57 in 10.0 mi West 12.7 mph - N/A   Mostly Cloudy
3:15 PM 50.0 °F - 37.4 °F 62% 30.58 in 10.0 mi NNE 9.2 mph - N/A   Mostly Cloudy
3:35 PM 53.6 °F - 37.4 °F 54% 30.58 in 10.0 mi NE 8.1 mph 19.6 mph N/A   Mostly Cloudy
3:55 PM 51.8 °F - 35.6 °F 54% 30.57 in 10.0 mi East 4.6 mph - N/A Thunderstorm Thunderstorm
4:15 PM 51.8 °F - 35.6 °F 54% 30.56 in 10.0 mi ESE 3.5 mph - N/A   Mostly Cloudy
4:35 PM 53.6 °F - 37.4 °F 54% 30.56 in 10.0 mi ENE 10.4 mph 16.1 mph N/A   Mostly Cloudy
4:55 PM 53.6 °F - 37.4 °F 54% 30.57 in 10.0 mi NNE 6.9 mph - N/A   Overcast
5:14 PM 53.6 °F - 37.4 °F 54% 30.57 in 10.0 mi WNW 3.5 mph - N/A   Overcast
5:34 PM 50.0 °F - 33.8 °F 54% 30.57 in 10.0 mi SSE 6.9 mph - N/A Thunderstorm Overcast
5:54 PM 51.8 °F - 33.8 °F 50% 30.57 in 10.0 mi West 3.5 mph - N/A   Overcast
6:14 PM 50.0 °F - 33.8 °F 54% 30.58 in 10.0 mi West 5.8 mph - N/A Thunderstorm Overcast
6:34 PM 48.2 °F - 35.6 °F 62% 30.58 in 10.0 mi West 6.9 mph - N/A   Overcast
6:54 PM 46.4 °F 42.4 °F 33.8 °F 62% 30.57 in 10.0 mi West 8.1 mph - N/A   Overcast
7:14 PM 46.4 °F 45.2 °F 35.6 °F 66% 30.57 in 10.0 mi West 3.5 mph - N/A   Overcast
7:34 PM 46.4 °F 42.9 °F 35.6 °F 66% 30.56 in 10.0 mi ESE 6.9 mph - N/A   Mostly Cloudy
7:54 PM 44.6 °F - 35.6 °F 71% 30.57 in 10.0 mi Calm Calm - N/A   Scattered Clouds
8:14 PM 44.6 °F 41.4 °F 33.8 °F 66% 30.57 in 10.0 mi WSW 5.8 mph - N/A   Scattered Clouds
8:34 PM 44.6 °F 42.2 °F 33.8 °F 66% 30.58 in 10.0 mi SSW 4.6 mph - N/A   Overcast
8:54 PM 44.6 °F 40.2 °F 33.8 °F 66% 30.59 in 10.0 mi South 8.1 mph - N/A   Mostly Cloudy
9:14 PM 44.6 °F 40.2 °F 33.8 °F 66% 30.59 in 10.0 mi South 8.1 mph - N/A   Clear
9:34 PM 44.6 °F 40.2 °F 33.8 °F 66% 30.59 in 10.0 mi South 8.1 mph - N/A   Clear
9:54 PM 44.6 °F 40.7 °F 33.8 °F 66% 30.59 in 10.0 mi South 6.9 mph - N/A   Mostly Cloudy
10:14 PM 44.6 °F 38.8 °F 33.8 °F 66% 30.59 in 10.0 mi South 11.5 mph - N/A   Overcast
10:34 PM 44.6 °F 38.8 °F 35.6 °F 71% 30.59 in 10.0 mi South 11.5 mph - N/A   Overcast
10:54 PM 44.6 °F 37.8 °F 33.8 °F 66% 30.59 in 10.0 mi South 15.0 mph - N/A Thunderstorm Overcast
11:14 PM 44.6 °F 38.1 °F 33.8 °F 66% 30.59 in 10.0 mi SSE 13.8 mph - N/A   Overcast
11:34 PM 44.6 °F 37.2 °F 33.8 °F 66% 30.59 in 10.0 mi South 17.3 mph - N/A   Overcast
11:54 PM 44.6 °F 37.4 °F 33.8 °F 66% 30.59 in 10.0 mi South 16.1 mph - N/A   Mostly Cloudy